• Processing (Info)

  • MPEC 2005-O07 : COMET P/2005 L1 (McNAUGHT)

    The following Minor Planet Electronic Circular may be linked-to from your own Web pages, but must not otherwise be redistributed electronically.

    A form allowing access to any MPEC is at the bottom of this page.


    Read MPEC 2005-O06 Read MPEC 2005-O08


    M.P.E.C. 2005-O07                                Issued 2005 July 18, 00:23 UT
    
         The Minor Planet Electronic Circulars contain information on unusual
             minor planets and routine data on comets.  They are published
       on behalf of Commission 20 of the International Astronomical Union by the
              Minor Planet Center, Smithsonian Astrophysical Observatory,
                              Cambridge, MA 02138, U.S.A.
    
                      Supported in part by the Brinson Foundation
                 Prepared using the Tamkin Foundation Computer Network
    
                                  MPC@CFA.HARVARD.EDU
              URL http://cfa-www.harvard.edu/iau/mpc.html  ISSN 1523-6714
    
                              COMET P/2005 L1 (McNAUGHT)
    
    Observations:
        PK05L010  C2005 07 01.20722 16 25 59.02 -12 05 50.8          17.5 T EO007H42
        PK05L010  C2005 07 01.25237 16 25 57.79 -12 05 54.3          17.1 T EO007H42
        PK05L010  C2005 07 01.29436 16 25 56.64 -12 05 58.4          17.2 T EO007H42
        PK05L010  C2005 07 01.92125 16 25 40.21 -12 07 02.7          17.8 N EO007130
        PK05L010  C2005 07 01.92539 16 25 40.11 -12 07 03.6          17.5 N EO007130
        PK05L010  C2005 07 01.92931 16 25 40.03 -12 07 04.0          18.0 N EO007130
        PK05L010  C2005 07 01.93334 16 25 39.94 -12 07 04.8          17.8 N EO007130
        PK05L010  C2005 07 03.58373 16 24 58.41 -12 09 56.9                 EO007413
        PK05L010  C2005 07 03.58571 16 24 58.36 -12 09 57.2                 EO007413
        PK05L010  C2005 07 11.88175 16 22 14.99 -12 28 02.6          16.8 N EO007J76
        PK05L010  C2005 07 11.88392 16 22 14.96 -12 28 03.0          16.9 N EO007J76
        PK05L010  C2005 07 11.88464 16 22 14.94 -12 28 03.0          16.7 N EO007J76
        PK05L010  C2005 07 13.91765 16 21 46.94 -12 33 14.5          16.5 N EO007213
        PK05L010  C2005 07 13.91947 16 21 46.92 -12 33 15.0          16.5 N EO007213
        PK05L010  C2005 07 14.86403 16 21 35.69 -12 35 45.4          16.4 T EO007108
        PK05L010  C2005 07 14.87413 16 21 35.58 -12 35 46.6          16.7 T EO007108
        PK05L010  C2005 07 14.88628 16 21 35.41 -12 35 47.1          16.6 T EO007108
        PK05L010  C2005 07 14.89979 16 21 35.29 -12 35 51.2                 EO007J97
    
    Observer details:
    108 Montelupo.  Observers M. Tombelli, L. Tesi.  Measurers M. Tombelli,
        L. Tesi, S. Bartolini, G. Forti.  0.30-m f/5.7 Schmidt-Cassegrain + CCD.
    130 Lumezzane.  Observers C. Cremaschini, S. Foglia, W. Marinello, M. Micheli,
        G. Pizzetti, A. Soffiantini.  Measurer W. Marinello.  0.40-m f/4.5
        reflector + CCD.
    213 Observatorio Montcabre.  Observer R. Naves.  Measurer M. Campas.  0.30-m
        f/10 Schmidt-Cassegrain + CCD.
    413 Siding Spring.  Observer R. H. McNaught.  1.0-m f/8 reflector + CCD.
    H42 Wartburg College Observatory, Waverly.  Observers E. Benoy, C. Figura.
        0.36-m f/11 Schmidt-Cassegrain + CCD.
    J76 La Murta.  Observers S. Pastor, J. A. Reyes.  0.40-m f/6.3
        Schmidt-Cassegrain + CCD.
    J97 Alginet.  Observer T. Climent G.  0.25-m f/3.3 Schmidt-Cassegrain + CCD.
    
    Orbital elements:
        P/2005 L1 (McNaught)
    Epoch 2005 Dec. 16.0 TT = JDT 2453720.5
    T 2005 Dec. 12.93539 TT                                 MPC
    q   3.1434520            (2000.0)            P               Q
    n   0.12444701     Peri.  149.51489     +0.30954196     +0.94666427
    a   3.9732546      Node   138.33183     -0.89733468     +0.32195381
    e   0.2088471      Incl.    7.73701     -0.31460172     +0.01313405
    P   7.92
    Residuals in seconds of arc
    050516 704  0.3+  0.4-    050606 A41  0.3-  0.1+    050628 691  0.1+  0.0
    050516 704  0.3+  0.1+    050606 A41  0.4+  0.3-    050628 691  0.0   0.3-
    050516 704  0.0   0.3+    050607 A11  1.0+  1.0-    050628 644  0.2-  0.2+
    050516 704  0.5+  1.0+    050607 A11 (0.1-  2.9+)   050628 644  0.3-  0.1+
    050516 704  1.5-  0.4-    050607 I77  0.8+  0.4+    050628 644  0.4-  0.1+
    050602 608  1.4+  0.6+    050607 I77  1.6+  0.5-    050628 372  0.7-  0.2+
    050602 608  1.2+  0.9+    050607 I77  0.8-  0.3-    050628 048  1.7-  0.8+
    050602 608  1.1+  1.1+    050607 I77 (0.8-  2.9+)   050628 048  1.2-  1.0+
    050602 E12  0.1-  0.1-    050607 H42  0.6+  0.6+    050628 048  1.1-  0.7+
    050602 E12  0.0   0.1-    050607 H42  0.4+  0.1+    050628 048  0.8-  0.0
    050602 E12  0.1-  0.5-    050608 H45  0.1+  0.1+    050628 048  0.7-  0.3-
    050602 E12  0.1+  0.5+    050608 H45  1.0+  0.0     050630 673  0.1+  0.4+
    050602 E12  0.2-  0.1+    050608 H45  1.1-  0.1-    050630 673  0.3+  0.3+
    050602 E12  0.4+  0.0     050608 H45  0.4-  0.2-    050630 673  0.3+  0.3+
    050602 E12  0.3-  0.1-    050608 H45  1.1-  0.1-    050630 673  0.2+  0.2+
    050602 A50  0.3+  0.2+    050608 138  0.6-  0.1-    050630 213  0.6+  0.1-
    050602 A50  0.1+  0.2-    050608 138  0.4+  1.6-    050630 213  0.6+  0.3-
    050602 A50  0.2+  0.1+    050608 J76  0.5+  0.1+    050630 213  0.6+  0.4-
    050602 A50  0.0   0.1+    050608 J76  0.4+  0.2+    050701 H42  0.3-  0.5-
    050602 A50  0.0   0.4+    050608 J76  0.6+  0.1-    050701 H42  0.0   0.5+
    050602 A13  0.1+  0.1-    050609 372  0.0   0.3+    050701 H42  0.1+  0.5+
    050602 A13  0.1-  0.0     050609 372  0.5-  0.5+    050701 130  0.6-  0.3+
    050602 A13  0.2-  0.1-    050610 691  0.1+  0.5-    050701 130  0.4-  0.2-
    050602 A13  0.0   0.3-    050610 691  0.0   0.0     050701 130  0.0   0.2-
    050602 A13  0.1-  0.1-    050610 691  0.2+  0.2+    050701 J76  0.2+  0.2-
    050603 147  0.7-  0.6+    050611 703  1.0-  0.0     050701 J76  0.1+  0.1+
    050603 147  0.7+  0.5-    050611 703  0.9-  0.2+    050701 J76  0.2+  0.3+
    050603 147  0.1-  0.1-    050611 703  0.2-  0.4+    050701 130  0.2+  0.6-
    050603 147  0.5+  0.1+    050611 703  0.7-  0.0     050702 415  0.1-  0.2+
    050603 147  1.2-  0.8-    050611 J76  0.4+  0.0     050702 415  0.1-  0.1+
    050603 734  0.1+  0.2-    050611 J76  0.4+  0.1+    050702 A06  0.2+  0.0
    050603 734  0.3-  0.0     050611 J76  0.5+  0.3+    050702 A06  0.2-  0.2-
    050603 703  0.7-  0.3-    050614 691  0.2+  0.1+    050702 A02  0.3+  0.3-
    050603 703  0.7-  0.2-    050614 691  0.9-  0.2-    050702 A02  0.1-  0.3-
    050603 703  0.5-  0.0     050614 691 (0.2+  3.0-)   050702 A02  0.4-  0.7-
    050603 651  0.4+  0.8+    050614 415  0.3+  0.2-    050703 413  0.1-  0.1-
    050603 651  0.3-  0.7-    050614 415  0.1-  0.5-    050703 413  0.1-  0.2-
    050603 651  0.1+  0.3-    050616 673  0.6+  0.2+    050703 J76  0.2+  0.3+
    050603 474  0.6-  0.2-    050616 673  0.4+  0.1+    050703 J76  0.2+  0.2+
    050603 474  1.4+  1.2+    050616 673  0.6+  0.1+    050703 J76  0.2+  0.2+
    050603 474  0.4-  0.9-    050616 673  0.6+  0.1+    050704 704 (2.0+  0.7-)
    050603 E12  0.8-  0.3-    050617 415  0.2-  0.0     050704 704 (2.0+  2.1-)
    050603 E12  0.0   0.1-    050617 415  0.4+  0.3+    050704 704  0.5+  1.8-
    050603 E12  0.8-  0.1-    050617 415  0.1+  0.0     050704 704  1.4-  0.1+
    050603 E12  0.1+  0.5-    050617 213  0.3+  0.2-    050705 644  0.2-  0.3+
    050604 372  0.8-  0.1-    050617 213  0.7+  0.1-    050705 644  0.5-  0.1-
    050604 372  0.5-  1.4+    050617 213  0.6+  0.3-    050705 644  0.2-  0.1-
    050604 360  0.3+  0.3-    050617 939  0.3-  0.1-    050706 608  0.3+  0.6+
    050604 360  0.0   0.6-    050617 939  0.7+  0.3-    050706 608  0.8+  0.5+
    050604 360  0.2+  0.2-    050617 170  0.3+  0.3-    050706 608  0.5+  0.6+
    050604 372  0.5-  0.1-    050617 170  0.3-  0.3+    050706 J76  0.8-  0.5+
    050604 213  0.1+  0.8+    050617 170  0.2+  0.3-    050706 J76  0.6-  0.6+
    050604 213  0.1+  0.7+    050617 170  0.2+  0.2-    050706 J76  0.1-  0.3+
    050604 213  0.2+  0.9+    050618 232  0.2-  0.2-    050709 673  0.0   0.2+
    050604 213  0.4+  0.8+    050618 232  0.1-  0.3+    050709 673  0.1-  0.2+
    050604 J78  0.3+  0.3+    050618 232  0.0   0.9+    050709 673  0.2+  0.1+
    050604 J78  0.2-  0.2+    050618 J76  0.3-  0.6+    050711 J76  0.1-  0.1+
    050604 J78  0.0   0.1-    050618 J76  0.1+  0.6+    050711 J76  0.0   0.1+
    050605 D74  0.7+  1.0+    050618 J76  0.1+  0.6+    050711 J76  0.1-  0.2+
    050605 D74  0.5+  0.8+    050625 J78  1.6+  0.9+    050713 213  0.1+  0.2+
    050605 D74  0.6+  0.9+    050626 I77  1.6+  0.8-    050713 213  0.1+  0.0
    050605 372  0.2-  0.1+    050626 I77  0.0   0.2-    050714 108  0.7+  0.3+
    050605 372  0.5+  0.1+    050626 I77  0.0   0.2-    050714 108  1.0+  0.7+
    050605 349  0.5+  0.2-    050627 I77  0.2-  0.4-    050714 108 (0.7+  2.2+)
    050605 349  0.6+  0.1-    050627 I77  0.4-  1.0-    050714 J97  0.9+  0.1+
    050605 349  0.2+  0.1+    050627 I77  0.8-  0.5-
    050606 A41  0.9+  0.6+    050628 691  0.0   0.0
    
    Brian G. Marsden             (C) Copyright 2005 MPC           M.P.E.C. 2005-O07
    

    Read MPEC 2005-O06 Read MPEC 2005-O08


    MPEC number:

    Enter an MPEC number in one of the following forms:

    • 1997-B01 (the full form)
    • J97B01 (the packed version of the full form)
    • B01 (the abbreviated form)